[[{"header":{"parameterUnit":"m.s-1","parameterCategory":1,"la1":30.2991,"la2":30.254,"lo1":-89.0895,"lo2":-89.0444,"dy":0.0017,"dx":0.0017,"nx":28,"ny":28,"refTime":"2025-04-12T03:00:00:Z","depth":0,"parameterNumber":2,"parameterNumberName":"U-component_of_WINDS"},"data":[0,0,0,0,0,0,0,0,0,0,0,0,0,0,0,0,0,0,0,0,0,0,0,0,0,0,0,0,0,0,0,0,0,0,0,0,0,0,0,0,0,0,0,0,0,0,0,0,0,0,0,0,0,0,0,0,0,0,-1.7295,-1.7295,0,-1.7317,-1.7317,-1.7318,-1.7193,-1.7189,-1.7186,-1.7182,-1.721,-1.7214,-1.7218,0,0,0,0,0,0,0,0,0,0,0,0,0,-1.7148,-1.7152,-1.7295,-1.7295,-1.7296,-1.7317,-1.7317,-1.7318,-1.7193,-1.7189,-1.7185,-1.7181,-1.7209,-1.7214,-1.7219,0,0,0,0,0,0,0,0,0,0,0,0,0,-1.7196,-1.7153,-1.7295,-1.7236,-1.7231,-1.7317,-1.7317,-1.7318,-1.7194,-1.7189,-1.7184,-1.7179,-1.7207,-1.7213,-1.7219,-1.7365,0,0,-1.7238,-1.7241,0,0,0,0,0,0,0,0,-1.7193,-1.7201,-1.7244,-1.724,-1.7235,-1.7246,-1.7276,-1.7334,-1.7196,-1.7208,-1.7182,-1.7176,-1.7227,-1.7231,-1.7247,-1.7366,-1.7368,-1.7239,-1.7242,-1.7245,-1.7247,0,0,0,0,0,0,0,-1.719,-1.72,-1.7304,-1.7245,-1.7239,-1.7209,-1.721,-1.7286,-1.7248,-1.7207,-1.7198,-1.7202,-1.7223,-1.7242,-1.7247,-1.7368,-1.7239,-1.7244,-1.7248,-1.725,-1.7605,-1.7611,0,0,0,0,0,0,-1.7194,-1.7198,-1.7303,-1.7305,-1.72,-1.7216,-1.7217,-1.7248,-1.7247,-1.7241,-1.7206,-1.7196,-1.7234,-1.724,-1.7248,-1.7417,-1.7245,-1.7251,-1.7254,-1.76,-1.7607,-1.7613,0,0,0,0,0,0,-1.7191,-1.7205,-1.7302,-1.7249,-1.7259,-1.7225,-1.7261,-1.7252,-1.727,-1.7246,-1.7239,-1.7232,-1.723,-1.7239,-1.7336,-1.7417,-1.7254,-1.7259,-1.7593,-1.7602,-1.761,-1.7759,0,0,0,0,0,0,-1.7188,-1.7204,-1.7259,-1.7251,-1.7262,-1.739,-1.7265,-1.7256,-1.728,-1.7267,-1.7268,-1.7264,-1.7226,-1.7327,-1.7342,-1.7422,-1.7264,-1.7586,-1.7597,-1.7607,-1.7746,-1.7771,-1.7792,0,0,0,0,0,-1.7183,-1.7302,-1.7262,-1.7276,-1.7329,-1.7395,-1.7402,-1.7355,-1.7287,-1.7342,-1.7326,-1.7264,-1.7405,-1.7338,-1.7354,-1.7437,-1.758,-1.7594,-1.7606,-1.7736,-1.7766,-1.7792,0,0,0,0,0,0,-1.7323,-1.73,-1.7256,-1.7375,-1.7388,-1.7374,-1.7442,-1.7389,-1.7422,-1.7409,-1.735,-1.7352,-1.7459,-1.7457,-1.7383,-1.7577,-1.7481,-1.7498,-1.7574,-1.7603,-1.7626,-1.7625,-1.7269,0,0,0,0,0,-1.7368,-1.7421,-1.7398,-1.7506,-1.7514,-1.7477,-1.7504,-1.7466,-1.7478,-1.7483,-1.7474,-1.7489,-1.7536,-1.7569,-1.7611,-1.7744,-1.7743,-1.7809,-1.7832,-1.7851,-1.7867,-1.7936,-1.7965,-1.7655,-1.7655,-1.7655,0,0,-1.7461,-1.7455,-1.7493,-1.7534,-1.7539,-1.7597,-1.7483,-1.7549,-1.7592,-1.7494,-1.7584,-1.7578,-1.759,-1.7706,-1.7756,-1.7708,-1.7951,-1.7867,-1.7883,-1.7888,-1.7952,-1.7982,-1.8008,-1.7664,-1.7662,-1.7661,0,0,-1.7661,-1.7661,-1.775,-1.7757,-1.7765,-1.7739,-1.776,-1.7753,-1.7745,-1.7834,-1.7761,-1.7811,-1.7894,-1.7905,-1.7922,-1.8122,-1.8066,-1.8138,-1.8259,-1.8327,-1.8352,-1.8373,-1.8445,-1.8471,-1.8153,-1.8153,-1.8154,0,-1.7777,-1.786,-1.7804,-1.7874,-1.7894,-1.7804,-1.7894,-1.7904,-1.7927,-1.7943,-1.7888,-1.7988,-1.799,-1.8107,-1.8155,-1.8171,-1.8194,-1.8139,-1.8352,-1.8373,-1.8392,-1.846,-1.8487,-1.8162,-1.8161,-1.816,-1.8159,0,-1.8002,-1.806,-1.8131,-1.8152,-1.818,-1.8261,-1.8217,-1.8252,-1.8211,-1.8191,-1.8282,-1.8281,-1.8321,-1.8345,-1.8307,-1.8455,-1.8425,-1.8362,-1.8265,-1.8432,-1.8494,-1.852,-1.8175,-1.8171,-1.8169,-1.8167,0,0,-1.8295,-1.828,-1.8308,-1.8315,-1.8316,-1.8361,-1.8436,-1.8472,-1.8504,-1.8521,-1.8584,-1.8654,-1.8595,-1.8614,-1.8576,-1.8635,-1.8794,-1.8564,-1.8564,-1.8608,-1.8957,-1.9006,-1.9037,-1.8755,-1.8759,-1.8763,-1.8956,0,-1.849,-1.8617,-1.8567,-1.8699,-1.8752,-1.8666,-1.8731,-1.8739,-1.8722,-1.8765,-1.8745,-1.8796,-1.8714,-1.8725,-1.8779,-1.8763,-1.8863,-1.8748,-1.8814,-1.8817,-1.8815,-1.9069,-1.9121,-1.9304,-1.898,-1.8984,-1.8987,0,-1.8737,-1.8761,-1.8898,-1.8886,-1.8907,-1.8967,-1.8995,-1.9037,-1.9044,-1.9026,-1.9046,-1.8994,-1.9067,-1.8968,-1.9069,-1.8992,-1.9015,-1.9011,-1.9017,-1.9023,-1.8914,-1.9083,-1.9361,-1.9389,-1.9025,-1.9022,-1.902,0,-1.8937,-1.9005,-1.9094,-1.9103,-1.9093,-1.9137,-1.9135,-1.9135,-1.916,-1.9184,-1.92,-1.9234,-1.9253,-1.928,-1.9239,-1.9171,-1.9346,-1.9244,-1.9335,-1.9336,-1.9378,-1.9376,-1.9664,-1.9391,-1.939,-1.939,-1.9389,0,-1.9162,-1.925,-1.9184,-1.924,-1.9334,-1.9275,-1.9371,-1.9359,-1.936,-1.9412,-1.9339,-1.939,-1.9331,-1.9377,-1.9344,-1.9433,-1.9442,-1.9431,-1.9421,-1.9438,-1.944,-1.9454,-1.9441,-1.9397,-1.9395,-1.9394,-1.9393,0,-1.9404,-1.9363,-1.9455,-1.9436,-1.9433,-1.9504,-1.9488,-1.9539,-1.9514,-1.9581,-1.9593,-1.9556,-1.9605,-1.9565,-1.9614,-1.9592,-1.9709,-1.9681,-1.9706,-1.9699,-1.9793,-1.9785,-2.0101,-2.014,-1.9841,-1.9844,-1.9846,0,-1.9551,-1.9616,-1.9602,-1.963,-1.9632,-1.9679,-1.9702,-1.9646,-1.9673,-1.9684,-1.9734,-1.9776,-1.9807,-1.9889,-1.9868,-1.9904,-1.9877,-1.9985,-1.9883,-1.9897,-1.988,-1.9877,-1.9883,-2.0007,-2.0011,-2.0014,-2.0016,0,-1.9817,-1.9792,-1.9828,-1.9856,-1.9885,-1.9905,-1.992,-1.9948,-1.9889,-1.9924,-1.9972,-1.9996,-2.0043,-2.0087,-2.0115,-2.0113,-2.0056,-2.0048,-2.0071,-2.009,-2.0102,-2.0097,-1.9765,-2.0042,-2.0039,-2.0037,-2.0036,-2.0035,-2.0016,-2.0068,-2.0066,-2.0108,-2.0111,-2.0126,-2.0172,-2.0152,-2.019,-2.0223,-2.0187,-2.0246,-2.0248,-2.028,-2.0285,-2.033,-2.0285,-2.0319,-2.0327,-2.0337,-2.035,-2.0093,-2.0335,-2.0334,-2.0333,-2.0333,-2.0332,0,-2.0278,-2.0271,-2.031,-2.033,-2.0363,-2.0302,-2.0314,-2.0346,-2.0397,-2.0404,-2.0434,-2.0489,-2.0529,-2.0509,-2.0544,-2.0584,-2.0559,-2.0595,-2.0593,-2.0593,-2.0388,-2.0365,-2.0615,-2.0615,-2.0615,-2.0615,-2.0615,-2.0615,-2.0419,-2.0504,-2.0479,-2.0565,-2.0557,-2.0612,-2.0624,-2.0637,-2.0641,-2.0705,-2.0737,-2.0722,-2.0718,-2.0751,-2.0786,-2.0778,-2.0795,-2.0842,-2.0826,-2.0636,-2.0608,-2.0581,-2.0559,-2.0846,-2.0846,-2.1027,-2.1028,-2.103]},{"header":{"parameterUnit":"m.s-1","parameterCategory":1,"la1":30.2991,"la2":30.254,"lo1":-89.0895,"lo2":-89.0444,"dy":0.0017,"dx":0.0017,"nx":28,"ny":28,"refTime":"2025-04-12T03:00:00:Z","depth":0,"parameterNumber":3,"parameterNumberName":"V-component_of_WINDS"},"data":[0,0,0,0,0,0,0,0,0,0,0,0,0,0,0,0,0,0,0,0,0,0,0,0,0,0,0,0,0,0,0,0,0,0,0,0,0,0,0,0,0,0,0,0,0,0,0,0,0,0,0,0,0,0,0,0,0,0,-3.9872,-3.9873,0,-3.9983,-3.9984,-3.9985,-3.9944,-3.9942,-3.9939,-3.9937,-4.0048,-4.0053,-4.0058,0,0,0,0,0,0,0,0,0,0,0,0,0,-3.962,-3.9625,-3.9871,-3.9873,-3.9874,-3.9983,-3.9984,-3.9986,-3.9945,-3.9942,-3.9939,-3.9936,-4.0046,-4.0052,-4.0059,0,0,0,0,0,0,0,0,0,0,0,0,0,-3.973,-3.9626,-3.9871,-3.9867,-3.9868,-3.9982,-3.9984,-3.9986,-3.9945,-3.9941,-3.9938,-3.9934,-4.0044,-4.0052,-4.0059,-4.0184,0,0,-4.0084,-4.0087,0,0,0,0,0,0,0,0,-3.9724,-3.9739,-3.9866,-3.9867,-3.9868,-3.9946,-3.9936,-4.0052,-3.9946,-3.9916,-3.9937,-3.9932,-4.0017,-4.0027,-4.0056,-4.0189,-4.0194,-4.0084,-4.0089,-4.0093,-4.0095,0,0,0,0,0,0,0,-3.9716,-3.9734,-3.9915,-3.9868,-3.9869,-3.9858,-3.987,-3.9958,-3.9986,-3.9918,-3.9915,-3.9929,-4.0016,-4.0048,-4.0058,-4.0195,-4.0084,-4.0091,-4.0096,-4.0099,-4.0434,-4.0438,0,0,0,0,0,0,-3.9708,-3.9728,-3.9912,-3.9919,-3.9785,-3.9866,-3.9879,-3.9925,-3.9985,-3.999,-3.9932,-3.9927,-4.0036,-4.0049,-4.0062,-4.021,-4.0093,-4.01,-4.0105,-4.043,-4.0435,-4.044,0,0,0,0,0,0,-3.9703,-3.9725,-3.9907,-3.9823,-3.9845,-3.9874,-3.9926,-3.9929,-3.996,-3.9996,-4.0,-3.996,-4.0034,-4.005,-4.0154,-4.0213,-4.0104,-4.0111,-4.0425,-4.0432,-4.0437,-4.0508,0,0,0,0,0,0,-3.9696,-3.9724,-3.9772,-3.9824,-3.985,-3.9999,-3.993,-3.9934,-3.9975,-3.9969,-4.0022,-4.0028,-4.0032,-4.0142,-4.0161,-4.0222,-4.0117,-4.042,-4.0428,-4.0436,-4.0501,-4.0516,-4.053,0,0,0,0,0,-3.9687,-3.9788,-3.9775,-3.9797,-3.9911,-4.0002,-4.0017,-4.0021,-3.998,-4.0028,-4.005,-4.0026,-4.0204,-4.0153,-4.0174,-4.0239,-4.0416,-4.0426,-4.0435,-4.0494,-4.0513,-4.0529,0,0,0,0,0,0,-3.9741,-3.9794,-3.9781,-3.9901,-3.9948,-3.9995,-4.0057,-4.0041,-4.0099,-4.0091,-4.0092,-4.0105,-4.0211,-4.0235,-4.0177,-4.0361,-4.0304,-4.0318,-4.0341,-4.036,-4.0374,-4.0365,-4.0124,0,0,0,0,0,-3.9767,-3.9838,-3.988,-3.9982,-4.0006,-4.0028,-4.0067,-4.0066,-4.0114,-4.0133,-4.0163,-4.0209,-4.0275,-4.0319,-4.0382,-4.0504,-4.0514,-4.0559,-4.0573,-4.0585,-4.0597,-4.0661,-4.0681,-4.047,-4.047,-4.047,0,0,-3.9821,-3.9859,-3.9904,-3.9994,-4.003,-4.0101,-4.0044,-4.0123,-4.0176,-4.0145,-4.0244,-4.0267,-4.0319,-4.0432,-4.0483,-4.0455,-4.0657,-4.0597,-4.0606,-4.0611,-4.0673,-4.0693,-4.071,-4.0477,-4.0475,-4.0474,0,0,-3.9957,-3.9993,-4.0081,-4.0119,-4.0174,-4.0187,-4.0208,-4.0258,-4.0273,-4.0373,-4.035,-4.0412,-4.0527,-4.0564,-4.0598,-4.0746,-4.0725,-4.0766,-4.0841,-4.0904,-4.0921,-4.0935,-4.0987,-4.1005,-4.0778,-4.0778,-4.0779,0,-4.0017,-4.0125,-4.0128,-4.0209,-4.0248,-4.0224,-4.0313,-4.0348,-4.0421,-4.0448,-4.0416,-4.0558,-4.0591,-4.0712,-4.0748,-4.0776,-4.0799,-4.076,-4.0918,-4.0933,-4.0947,-4.0996,-4.1015,-4.0783,-4.0782,-4.0782,-4.0782,0,-4.0196,-4.0271,-4.0335,-4.0407,-4.0454,-4.0538,-4.0552,-4.0599,-4.0593,-4.061,-4.071,-4.0749,-4.0819,-4.0847,-4.0843,-4.0967,-4.0948,-4.0917,-4.0859,-4.0971,-4.1017,-4.1036,-4.079,-4.0788,-4.0787,-4.0785,0,0,-4.0368,-4.044,-4.0463,-4.0495,-4.0553,-4.0611,-4.0693,-4.0762,-4.0801,-4.0852,-4.0919,-4.1016,-4.0988,-4.1026,-4.1026,-4.1081,-4.1194,-4.1043,-4.1045,-4.1069,-4.1331,-4.1353,-4.1375,-4.1181,-4.1184,-4.1187,-4.1326,0,-4.0507,-4.0653,-4.0657,-4.0789,-4.0858,-4.0836,-4.0907,-4.0949,-4.0967,-4.1026,-4.1044,-4.1113,-4.1071,-4.1094,-4.1148,-4.1169,-4.1246,-4.1159,-4.1242,-4.1245,-4.1229,-4.1399,-4.1423,-4.1552,-4.1344,-4.1347,-4.135,0,-4.0689,-4.0746,-4.0885,-4.0932,-4.0961,-4.1026,-4.1088,-4.1146,-4.1193,-4.1201,-4.1244,-4.1235,-4.1317,-4.1257,-4.1369,-4.1309,-4.1344,-4.1359,-4.1364,-4.1371,-4.1304,-4.1409,-4.1594,-4.1613,-4.1378,-4.1376,-4.1374,0,-4.0799,-4.091,-4.1008,-4.1035,-4.1094,-4.1139,-4.1165,-4.1209,-4.1249,-4.1304,-4.1329,-4.1392,-4.1427,-4.1475,-4.1482,-4.1438,-4.1594,-4.1535,-4.1602,-4.1602,-4.1635,-4.1633,-4.1826,-4.1659,-4.1659,-4.1658,-4.1658,0,-4.0953,-4.1039,-4.1058,-4.1118,-4.1212,-4.1216,-4.1309,-4.1331,-4.137,-4.1433,-4.1417,-4.1476,-4.1482,-4.1542,-4.1549,-4.1639,-4.1655,-4.1663,-4.1663,-4.1664,-4.1663,-4.1686,-4.1676,-4.1664,-4.1662,-4.1661,-4.1661,0,-4.1092,-4.1109,-4.1213,-4.1259,-4.1273,-4.134,-4.1379,-4.1436,-4.1451,-4.153,-4.1549,-4.1572,-4.1642,-4.1654,-4.1736,-4.174,-4.1848,-4.184,-4.1833,-4.1831,-4.1897,-4.189,-4.2111,-4.2139,-4.1955,-4.1957,-4.1958,0,-4.1189,-4.1255,-4.1308,-4.1349,-4.1378,-4.1444,-4.1485,-4.1491,-4.1534,-4.1593,-4.1642,-4.171,-4.1765,-4.1877,-4.19,-4.1963,-4.1955,-4.2028,-4.1964,-4.1962,-4.1954,-4.195,-4.1956,-4.204,-4.2042,-4.2044,-4.2045,0,-4.1359,-4.1363,-4.1424,-4.1488,-4.1537,-4.1587,-4.1635,-4.1669,-4.168,-4.173,-4.1801,-4.1844,-4.1927,-4.1995,-4.2057,-4.2082,-4.2065,-4.2065,-4.2083,-4.2084,-4.2077,-4.208,-4.1865,-4.206,-4.2058,-4.2057,-4.2056,-4.2056,-4.1479,-4.1535,-4.1581,-4.1649,-4.1685,-4.173,-4.1784,-4.1806,-4.1866,-4.1936,-4.1935,-4.2013,-4.2057,-4.2138,-4.2167,-4.2227,-4.2203,-4.2231,-4.2237,-4.2244,-4.2249,-4.2068,-4.2239,-4.2238,-4.2238,-4.2237,-4.2237,0,-4.1646,-4.1675,-4.1737,-4.1804,-4.1857,-4.1837,-4.1888,-4.1933,-4.2002,-4.2045,-4.21,-4.2181,-4.2246,-4.2274,-4.2338,-4.238,-4.2374,-4.2396,-4.2393,-4.2398,-4.2268,-4.2245,-4.24,-4.24,-4.24,-4.24,-4.24,-4.24,-4.174,-4.1834,-4.1844,-4.1955,-4.1982,-4.2059,-4.209,-4.213,-4.2164,-4.2256,-4.231,-4.2328,-4.2365,-4.2431,-4.2489,-4.2495,-4.2518,-4.2544,-4.2547,-4.2424,-4.2408,-4.2392,-4.237,-4.255,-4.255,-4.2673,-4.2674,-4.2675]}]]